JBU693 KLAX-KSFO

Flight info

Callsign JBU693
Flight time 0h 53m
Altitude 36000
Route SUMMR2 STOKD SERFR SERFR4
Aircraft A321/M-SDE3FGHIRWY/LB1

Departure

Time 2026-04-26 14:22
Airport Los Angeles International Airport (KLAX)

Arrival

Time 2026-04-26 15:16
Airport San Francisco International Airport (KSFO)
Time Latitude Longitude Altitude Speed Heading
2026-04-26 14:03 33.94631 -118.40837 75 ft 0 kts 97°
2026-04-26 14:15 33.94633 -118.40852 93 ft 3 kts 89°
2026-04-26 14:15 33.94630 -118.40875 94 ft 3 kts 63°
2026-04-26 14:15 33.94619 -118.40892 93 ft 3 kts 22°
2026-04-26 14:15 33.94606 -118.40896 92 ft 1 kts 353°
2026-04-26 14:16 33.94602 -118.40895 91 ft 0 kts 353°
2026-04-26 14:17 33.94610 -118.40896 93 ft 2 kts 353°
2026-04-26 14:18 33.94631 -118.40899 94 ft 4 kts 353°
2026-04-26 14:18 33.94664 -118.40904 93 ft 6 kts 353°
2026-04-26 14:18 33.94708 -118.40911 93 ft 7 kts 354°
2026-04-26 14:18 33.94760 -118.40900 96 ft 8 kts 15°
2026-04-26 14:19 33.94816 -118.40872 94 ft 9 kts 33°
2026-04-26 14:19 33.94842 -118.40803 94 ft 10 kts 83°
2026-04-26 14:19 33.94851 -118.40713 94 ft 12 kts 83°
2026-04-26 14:19 33.94862 -118.40610 98 ft 13 kts 83°
2026-04-26 14:20 33.94874 -118.40494 96 ft 15 kts 83°
2026-04-26 14:20 33.94887 -118.40364 94 ft 16 kts 83°
2026-04-26 14:20 33.94901 -118.40223 96 ft 18 kts 83°
2026-04-26 14:20 33.94910 -118.40135 94 ft 6 kts 83°
2026-04-26 14:21 33.94919 -118.40076 94 ft 8 kts 61°
2026-04-26 14:21 33.94972 -118.40063 95 ft 8 kts 355°
2026-04-26 14:21 33.95020 -118.40093 95 ft 8 kts 301°
2026-04-26 14:21 33.95021 -118.40161 99 ft 18 kts 263°
2026-04-26 14:22 33.94971 -118.40650 99 ft 96 kts 263°
2026-04-26 14:22 33.94863 -118.41710 99 ft 156 kts 264°
2026-04-26 14:22 33.94722 -118.43075 570 ft 166 kts 262°
2026-04-26 14:22 33.94559 -118.44473 1295 ft 171 kts 263°
2026-04-26 14:23 33.94405 -118.45969 1661 ft 191 kts 263°
2026-04-26 14:23 33.94266 -118.47643 1940 ft 210 kts 266°
2026-04-26 14:23 33.94199 -118.49482 2147 ft 236 kts 268°
2026-04-26 14:23 33.94141 -118.51500 2871 ft 243 kts 268°
2026-04-26 14:24 33.94024 -118.53520 3788 ft 245 kts 266°
2026-04-26 14:24 33.93872 -118.55590 4637 ft 249 kts 266°
2026-04-26 14:24 33.93707 -118.57669 4966 ft 248 kts 265°
2026-04-26 14:24 33.93539 -118.59746 5706 ft 250 kts 265°
2026-04-26 14:25 33.93370 -118.61847 6606 ft 252 kts 265°
2026-04-26 14:25 33.93203 -118.63957 7434 ft 254 kts 265°
2026-04-26 14:25 33.93034 -118.66088 8275 ft 257 kts 265°
2026-04-26 14:25 33.92863 -118.68252 9082 ft 262 kts 266°
2026-04-26 14:26 33.92692 -118.70449 9882 ft 266 kts 267°
2026-04-26 14:26 33.92517 -118.72704 10392 ft 280 kts 267°
2026-04-26 14:26 33.92333 -118.75133 10611 ft 303 kts 267°
2026-04-26 14:26 33.92134 -118.77756 10773 ft 326 kts 266°
2026-04-26 14:27 33.91921 -118.80544 11112 ft 341 kts 266°
2026-04-26 14:27 33.91726 -118.83407 11731 ft 345 kts 270°
2026-04-26 14:27 33.91786 -118.86268 12407 ft 348 kts 273°
2026-04-26 14:27 33.91873 -118.89184 13154 ft 350 kts 273°
2026-04-26 14:28 33.91960 -118.92135 13869 ft 354 kts 273°
2026-04-26 14:28 33.92048 -118.95104 14507 ft 357 kts 273°
2026-04-26 14:28 33.92140 -118.98097 15174 ft 359 kts 275°
2026-04-26 14:28 33.92538 -119.01064 15819 ft 361 kts 285°
2026-04-26 14:29 33.93444 -119.03902 16451 ft 365 kts 296°
2026-04-26 14:29 33.94757 -119.06539 17077 ft 370 kts 300°
2026-04-26 14:29 33.96112 -119.09145 17682 ft 374 kts 300°
2026-04-26 14:29 33.97495 -119.11818 18288 ft 378 kts 300°
2026-04-26 14:30 33.98887 -119.14519 18806 ft 381 kts 299°
2026-04-26 14:30 34.00360 -119.17189 19330 ft 386 kts 305°
2026-04-26 14:30 34.02197 -119.19561 19846 ft 392 kts 315°
2026-04-26 14:30 34.04390 -119.21574 20365 ft 398 kts 321°
2026-04-26 14:31 34.06659 -119.23514 20860 ft 402 kts 321°
2026-04-26 14:31 34.08953 -119.25479 21332 ft 404 kts 321°
2026-04-26 14:31 34.11217 -119.27422 21829 ft 407 kts 321°
2026-04-26 14:31 34.13531 -119.29407 22310 ft 410 kts 321°
2026-04-26 14:32 34.15864 -119.31414 22776 ft 413 kts 321°
2026-04-26 14:32 34.18206 -119.33432 23232 ft 415 kts 321°
2026-04-26 14:32 34.20568 -119.35468 23649 ft 418 kts 321°
2026-04-26 14:32 34.22949 -119.37524 24007 ft 423 kts 321°
2026-04-26 14:33 34.25351 -119.39601 24358 ft 426 kts 321°
2026-04-26 14:33 34.27765 -119.41690 24739 ft 428 kts 321°
2026-04-26 14:33 34.30195 -119.43792 25124 ft 431 kts 321°
2026-04-26 14:33 34.32638 -119.45906 25505 ft 433 kts 321°
2026-04-26 14:34 34.35060 -119.48001 25875 ft 435 kts 321°
2026-04-26 14:34 34.37526 -119.50133 26247 ft 437 kts 321°
2026-04-26 14:34 34.40000 -119.52280 26636 ft 439 kts 320°
2026-04-26 14:34 34.42309 -119.54690 26995 ft 437 kts 312°
2026-04-26 14:35 34.44444 -119.57318 27383 ft 439 kts 311°
2026-04-26 14:35 34.46588 -119.59964 27748 ft 441 kts 311°
2026-04-26 14:35 34.48737 -119.62618 28258 ft 440 kts 311°
2026-04-26 14:35 34.50877 -119.65257 28774 ft 438 kts 311°
2026-04-26 14:36 34.53010 -119.67883 29310 ft 437 kts 311°
2026-04-26 14:36 34.55109 -119.70462 29864 ft 435 kts 311°
2026-04-26 14:36 34.57232 -119.73074 30338 ft 434 kts 311°
2026-04-26 14:36 34.59346 -119.75681 30762 ft 433 kts 311°
2026-04-26 14:37 34.61452 -119.78283 31188 ft 432 kts 310°
2026-04-26 14:37 34.63545 -119.80873 31600 ft 431 kts 310°
2026-04-26 14:37 34.65648 -119.83479 32009 ft 430 kts 310°
2026-04-26 14:37 34.67731 -119.86065 32430 ft 429 kts 310°
2026-04-26 14:38 34.69817 -119.88655 32847 ft 428 kts 310°
2026-04-26 14:38 34.71897 -119.91231 33258 ft 427 kts 310°
2026-04-26 14:38 34.73981 -119.93813 33665 ft 427 kts 310°
2026-04-26 14:38 34.75358 -119.95522 33875 ft 428 kts 310°
2026-04-26 14:39 34.78116 -119.98945 34265 ft 428 kts 310°
2026-04-26 14:39 34.80197 -120.01531 34558 ft 428 kts 310°
2026-04-26 14:39 34.82276 -120.04119 34841 ft 428 kts 309°
2026-04-26 14:39 34.84355 -120.06708 35126 ft 428 kts 309°
2026-04-26 14:40 34.86435 -120.09299 35427 ft 428 kts 309°
2026-04-26 14:40 34.88515 -120.11890 35713 ft 428 kts 309°
2026-04-26 14:40 34.90593 -120.14486 35970 ft 429 kts 309°
2026-04-26 14:41 34.94768 -120.19717 36005 ft 431 kts 309°
2026-04-26 14:41 34.98927 -120.24929 36005 ft 432 kts 309°
2026-04-26 14:42 35.03112 -120.30184 36004 ft 432 kts 309°
2026-04-26 14:42 35.07301 -120.35438 36022 ft 432 kts 310°
2026-04-26 14:43 35.11568 -120.40609 36001 ft 433 kts 313°
2026-04-26 14:43 35.16015 -120.45532 36001 ft 435 kts 314°
2026-04-26 14:44 35.20525 -120.50454 36005 ft 435 kts 313°
2026-04-26 14:44 35.25000 -120.55436 36030 ft 435 kts 313°
2026-04-26 14:45 35.29452 -120.60457 36024 ft 435 kts 313°
2026-04-26 14:45 35.33902 -120.65487 36021 ft 435 kts 313°
2026-04-26 14:46 35.38357 -120.70510 36018 ft 435 kts 313°
2026-04-26 14:46 35.42792 -120.75520 36029 ft 436 kts 313°
2026-04-26 14:47 35.47236 -120.80557 36035 ft 436 kts 313°
2026-04-26 14:47 35.52006 -120.85209 36034 ft 439 kts 319°
2026-04-26 14:48 35.56884 -120.89725 36055 ft 439 kts 319°
2026-04-26 14:48 35.61725 -120.94222 36038 ft 439 kts 319°
2026-04-26 14:49 35.66593 -120.98753 36025 ft 439 kts 319°
2026-04-26 14:49 35.71464 -121.03291 36022 ft 439 kts 319°
2026-04-26 14:50 35.76332 -121.07836 36034 ft 439 kts 319°
2026-04-26 14:50 35.81165 -121.12363 36034 ft 439 kts 319°
2026-04-26 14:51 35.86030 -121.16916 36033 ft 439 kts 319°
2026-04-26 14:51 35.90892 -121.21473 36048 ft 439 kts 319°
2026-04-26 14:52 35.95747 -121.26027 36039 ft 439 kts 319°
2026-04-26 14:52 36.00604 -121.30595 36033 ft 438 kts 319°
2026-04-26 14:53 36.05417 -121.35134 35783 ft 437 kts 319°
2026-04-26 14:53 36.07898 -121.37309 35555 ft 438 kts 324°
2026-04-26 14:53 36.10477 -121.39316 35056 ft 439 kts 324°
2026-04-26 14:53 36.13078 -121.41338 34303 ft 443 kts 325°
2026-04-26 14:54 36.15691 -121.43373 33373 ft 447 kts 325°
2026-04-26 14:54 36.18320 -121.45423 32528 ft 447 kts 325°
2026-04-26 14:54 36.20070 -121.46789 31942 ft 448 kts 325°
2026-04-26 14:54 36.23571 -121.49521 30730 ft 451 kts 326°
2026-04-26 14:55 36.25365 -121.50923 30138 ft 451 kts 326°
2026-04-26 14:55 36.28896 -121.53688 28692 ft 453 kts 326°
2026-04-26 14:55 36.31563 -121.55781 27621 ft 454 kts 326°
2026-04-26 14:55 36.34238 -121.57878 26503 ft 456 kts 326°
2026-04-26 14:56 36.36017 -121.59274 25725 ft 458 kts 326°
2026-04-26 14:56 36.38719 -121.61399 24666 ft 459 kts 326°
2026-04-26 14:56 36.41375 -121.63488 24386 ft 444 kts 326°
2026-04-26 14:56 36.44738 -121.66132 24235 ft 419 kts 326°
2026-04-26 14:57 36.46378 -121.67423 24164 ft 408 kts 326°
2026-04-26 14:57 36.48731 -121.69274 24039 ft 392 kts 326°
2026-04-26 14:57 36.50997 -121.71057 23831 ft 381 kts 326°
2026-04-26 14:57 36.53192 -121.72788 23405 ft 376 kts 326°
2026-04-26 14:58 36.55397 -121.74537 22835 ft 375 kts 326°
2026-04-26 14:58 36.57583 -121.76276 22272 ft 373 kts 326°
2026-04-26 14:58 36.59759 -121.78005 21818 ft 370 kts 326°
2026-04-26 14:58 36.61931 -121.79725 21303 ft 368 kts 326°
2026-04-26 14:59 36.64086 -121.81430 20743 ft 367 kts 326°
2026-04-26 14:59 36.66223 -121.83122 20370 ft 362 kts 326°
2026-04-26 14:59 36.68338 -121.84801 19856 ft 360 kts 326°
2026-04-26 14:59 36.69734 -121.85910 19519 ft 359 kts 326°
2026-04-26 15:00 36.72538 -121.88135 18869 ft 356 kts 327°
2026-04-26 15:00 36.74740 -121.89468 18380 ft 356 kts 338°
2026-04-26 15:00 36.77136 -121.90260 17820 ft 356 kts 345°
2026-04-26 15:00 36.79544 -121.90921 17270 ft 353 kts 345°
2026-04-26 15:01 36.81935 -121.91580 16750 ft 351 kts 345°
2026-04-26 15:01 36.84312 -121.92242 16249 ft 348 kts 345°
2026-04-26 15:01 36.86532 -121.92866 15808 ft 344 kts 345°
2026-04-26 15:01 36.88850 -121.93518 15553 ft 340 kts 345°
2026-04-26 15:02 36.91157 -121.94167 15070 ft 339 kts 345°
2026-04-26 15:02 36.93447 -121.94809 14543 ft 338 kts 345°
2026-04-26 15:02 36.95739 -121.95475 14040 ft 336 kts 342°
2026-04-26 15:02 36.97950 -121.96248 13895 ft 323 kts 340°
2026-04-26 15:03 37.00054 -121.97065 13758 ft 310 kts 339°
2026-04-26 15:03 37.02064 -121.97884 13352 ft 299 kts 339°
2026-04-26 15:03 37.04030 -121.98689 12769 ft 296 kts 339°
2026-04-26 15:03 37.05977 -121.99478 12138 ft 293 kts 339°
2026-04-26 15:04 37.07922 -122.00257 11300 ft 298 kts 340°
2026-04-26 15:04 37.09912 -122.01048 10497 ft 307 kts 340°
2026-04-26 15:04 37.11922 -122.01838 10249 ft 298 kts 340°
2026-04-26 15:04 37.13866 -122.02598 10059 ft 289 kts 340°
2026-04-26 15:05 37.15762 -122.03336 9893 ft 282 kts 340°
2026-04-26 15:05 37.17002 -122.03820 9809 ft 282 kts 340°
2026-04-26 15:05 37.19501 -122.04798 9629 ft 277 kts 340°
2026-04-26 15:05 37.21322 -122.05513 9334 ft 273 kts 340°
2026-04-26 15:06 37.23129 -122.06224 8961 ft 271 kts 340°
2026-04-26 15:06 37.24923 -122.06928 8599 ft 270 kts 340°
2026-04-26 15:06 37.26685 -122.07617 8241 ft 269 kts 340°
2026-04-26 15:06 37.28473 -122.08320 7877 ft 269 kts 340°
2026-04-26 15:07 37.32057 -122.09726 7141 ft 270 kts 340°
2026-04-26 15:07 37.33769 -122.10597 6891 ft 262 kts 330°
2026-04-26 15:07 37.35395 -122.11626 6551 ft 261 kts 331°
2026-04-26 15:08 37.36997 -122.12655 6211 ft 253 kts 330°
2026-04-26 15:08 37.38527 -122.13640 5862 ft 241 kts 330°
2026-04-26 15:08 37.39969 -122.14567 5550 ft 225 kts 329°
2026-04-26 15:08 37.41316 -122.15436 5267 ft 213 kts 329°
2026-04-26 15:09 37.42625 -122.16285 4988 ft 210 kts 329°
2026-04-26 15:09 37.43915 -122.17124 4716 ft 205 kts 329°
2026-04-26 15:09 37.45128 -122.17910 4460 ft 186 kts 329°
2026-04-26 15:09 37.46179 -122.18584 4226 ft 159 kts 327°
2026-04-26 15:10 37.47107 -122.19181 4004 ft 144 kts 329°
2026-04-26 15:10 37.47704 -122.19568 3889 ft 142 kts 329°
2026-04-26 15:10 37.48858 -122.20317 3631 ft 140 kts 327°
2026-04-26 15:10 37.49719 -122.20878 3457 ft 140 kts 328°
2026-04-26 15:11 37.50583 -122.21442 3265 ft 140 kts 328°
2026-04-26 15:11 37.51444 -122.22005 3070 ft 139 kts 328°
2026-04-26 15:11 37.52304 -122.22564 2879 ft 139 kts 329°
2026-04-26 15:11 37.53158 -122.23120 2695 ft 138 kts 329°
2026-04-26 15:12 37.53991 -122.23663 2512 ft 136 kts 329°
2026-04-26 15:12 37.54847 -122.24217 2329 ft 136 kts 329°
2026-04-26 15:12 37.55688 -122.24763 2143 ft 136 kts 329°
2026-04-26 15:12 37.56515 -122.25303 1960 ft 136 kts 329°
2026-04-26 15:13 37.57243 -122.26027 1805 ft 133 kts 307°
2026-04-26 15:13 37.57702 -122.27035 1635 ft 132 kts 297°
2026-04-26 15:13 37.58135 -122.28061 1455 ft 132 kts 297°
2026-04-26 15:13 37.58566 -122.29084 1264 ft 132 kts 298°
2026-04-26 15:14 37.58996 -122.30106 1079 ft 133 kts 297°
2026-04-26 15:14 37.59426 -122.31137 918 ft 132 kts 297°
2026-04-26 15:14 37.59854 -122.32166 732 ft 133 kts 297°
2026-04-26 15:14 37.60281 -122.33191 529 ft 131 kts 297°
2026-04-26 15:15 37.60707 -122.34205 367 ft 131 kts 298°
2026-04-26 15:15 37.61138 -122.35217 167 ft 130 kts 298°
2026-04-26 15:15 37.61562 -122.36225 26 ft 127 kts 298°
2026-04-26 15:15 37.61911 -122.37049 18 ft 83 kts 298°
2026-04-26 15:16 37.62107 -122.37507 18 ft 42 kts 298°
2026-04-26 15:16 37.62194 -122.37770 20 ft 29 kts 280°
2026-04-26 15:16 37.62219 -122.37994 25 ft 22 kts 277°
2026-04-26 15:16 37.62230 -122.38137 24 ft 16 kts 263°
2026-04-26 15:17 37.62178 -122.38269 22 ft 18 kts 240°
2026-04-26 15:17 37.62110 -122.38317 22 ft 17 kts 174°
2026-04-26 15:17 37.62019 -122.38155 23 ft 19 kts 117°
2026-04-26 15:17 37.61946 -122.38009 22 ft 20 kts 145°
2026-04-26 15:18 37.61822 -122.37968 21 ft 18 kts 161°
2026-04-26 15:18 37.61691 -122.37954 17 ft 21 kts 194°
2026-04-26 15:18 37.61551 -122.38040 14 ft 24 kts 207°
2026-04-26 15:18 37.61423 -122.38125 15 ft 19 kts 208°
2026-04-26 15:19 37.61301 -122.38205 15 ft 18 kts 207°
2026-04-26 15:19 37.61238 -122.38246 17 ft 10 kts 207°
2026-04-26 15:19 37.61199 -122.38302 18 ft 9 kts 267°
2026-04-26 15:19 37.61213 -122.38388 18 ft 11 kts 281°
2026-04-26 15:20 37.61225 -122.38417 19 ft 1 kts 301°
2026-04-26 15:20 37.61225 -122.38418 19 ft 0 kts 301°